Regional Weather Roundup
Issued by NWS Sioux Falls, SD

Home | Current Version | Previous Version | Text Only | Print | Product List | Glossary On
Versions: 1 2 3 4 5 6 7 8 9 10 11 12 13 14 15 16 17 18 19 20 21 22 23 24 25 26 27 28 29 30 31 32 33 34 35 36 37 38 39 40 41 42 43 44 45 46 47 48 49 50
000
ASUS43 KFSD 251510
RWRFSD

WEATHER ROUNDUP FOR SE SOUTH DAKOTA/SW MINNESOTA/NW IOWA
NATIONAL WEATHER SERVICE SIOUX FALLS SD
1000 AM CDT MON JUL 25 2016

NOTE: "FAIR" INDICATES FEW OR NO CLOUDS BELOW 12,000 FEET WITH NO
SIGNIFICANT WEATHER AND OR OBSTRUCTIONS TO VISIBILITY.


SDZ038>040-050-052>070-251600-
SOUTHEAST SOUTH DAKOTA

CITY           SKY/WX    TMP DP  RH WIND       PRES   REMARKS
BROOKINGS      SUNNY     76  65  68 W3        30.13R
CHAMBERLAIN    SUNNY     80  62  54 S12       30.12S
HURON          MOSUNNY   79  63  57 S8        30.09S
MADISON        FAIR      75  64  69 SW7       30.14S
MITCHELL       SUNNY     80  64  58 S10       30.12S
SIOUX FALLS    MOSUNNY   77  63  61 SW5       30.13R
WINNER         FAIR      81  48  31 S17       30.13S
YANKTON        SUNNY     75  63  64 CALM      30.12S
$$

MNZ071-072-080-081-089-090-097-098-251600-
SOUTHWEST MINNESOTA

CITY           SKY/WX    TMP DP  RH WIND       PRES   REMARKS
FAIRMONT         N/A    N/A N/A N/A MISG        N/A
JACKSON        SUNNY     75  61  60 CALM      30.13F
LUVERNE        SUNNY     72  61  68 CALM      30.14S
MARSHALL       SUNNY     77  61  57 E5        30.11S
MONTEVIDEO     SUNNY     81  70  69 CALM      30.11S
REDWOOD FALLS  SUNNY     76  61  59 CALM      30.10S
TRACY          SUNNY     77  63  61 E3        30.13S
WINDOM         SUNNY     75  64  69 CALM      30.13S
WORTHINGTON    SUNNY     77  63  61 NE3       30.14S
$$

IAZ001>003-012>014-020>022-031-032-NEZ013-014-SDZ071-251600-
NORTHWEST IOWA

CITY           SKY/WX    TMP DP  RH WIND       PRES   REMARKS
CHEROKEE       SUNNY     75  67  75 CALM      30.13F
DENISON        SUNNY     77  66  69 CALM      30.12R
ESTHERVILLE    SUNNY     75  64  68 W5        30.12F
LE MARS        SUNNY     77  63  61 CALM      30.14S
SHELDON        SUNNY     73  68  83 CALM      30.13S
SIOUX CITY     SUNNY     79  63  57 CALM      30.13S
SPENCER          N/A     76  64  66 CALM      30.13F
STORM LAKE     SUNNY     77  64  65 CALM      30.14S
$$

ABBREVIATIONS USED IN REMARKS
   TC - TEMPERATURE IN CELSIUS
  WCI - WIND CHILL INDEX
   HX - HEAT INDEX
  VSB - VISIBILITY




USA.gov is the U.S. government's official web portal to all federal, state and local government web resources and services.